Regional Weather Roundup
Issued by NWS Little Rock, AR

Home | Current Version | Previous Version | Graphics & Text | Print | Product List | Glossary On
Versions: 1 2 3 4 5 6 7 8 9 10 11 12 13 14 15 16 17 18 19 20 21 22 23 24 25 26 27 28 29 30 31 32 33 34 35 36 37 38 39 40 41 42 43 44 45 46 47 48 49 50
000
ASUS44 KLZK 241105
RWRLZK

WEATHER ROUNDUP FOR ARKANSAS
NATIONAL WEATHER SERVICE LITTLE ROCK AR
500 AM CST MON NOV 24 2014

NOTE: "FAIR" INDICATES FEW OR NO CLOUDS BELOW 12,000 FEET WITH NO
SIGNIFICANT WEATHER AND/OR OBSTRUCTIONS TO VISIBILITY.

ARZ001-003-010-029-241200-
NORTHWEST ARKANSAS

CITY           SKY/WX    TMP DP  RH WIND       PRES   REMARKS
FAYETTEVILLE   CLEAR     38  34  85 W14       29.76R
FORT SMITH     CLEAR     42  36  79 W13       29.80R
HARRISON       CLEAR     39  33  79 W15G29    29.67R
BENTONVILLE    CLEAR     37  32  81 W10       29.74R
ROGERS         CLEAR     38  34  85 W13       29.73R
SILOAM SPGS    CLEAR     37  28  70 W9        29.77R
HIGHFILL       CLEAR     38  38 100 W10       29.74R
$$

ARZ004-005-016-241200-
NORTH CENTRAL ARKANSAS

CITY           SKY/WX    TMP DP  RH WIND       PRES   REMARKS
BATESVILLE     PTCLDY    45  34  65 W15       29.66R
FLIPPIN        CLEAR     43  30  61 W13G21    29.67R
MTN HOME       CLEAR     41  34  76 W9G20     29.64R
$$

ARZ040-041-241200-
WEST CENTRAL ARKANSAS

CITY           SKY/WX    TMP DP  RH WIND       PRES   REMARKS
MENA           CLEAR     43  36  75 W7        29.82R
MOUNT IDA      CLEAR     45  34  65 VRB7      29.76R
$$

ARZ009-017-025-026-028-241200-
NORTHEAST ARKANSAS

CITY           SKY/WX    TMP DP  RH WIND       PRES   REMARKS
CORNING        PTSUNNY   46  39  76 W22G29    29.57R
JONESBORO      PTCLDY    48  41  76 W16G25    29.61R
NEWPORT        CLOUDY    47  39  73 W20       29.68R
WALNUT RIDGE   CLOUDY    46  36  66 W21G33    29.61R
BLYTHEVILLE    CLOUDY    56  44  64 W18G31    29.57R
$$

ARZ022-023-033-042-044-241200-
CENTRAL ARKANSAS

CITY           SKY/WX    TMP DP  RH WIND       PRES   REMARKS
LITTLE ROCK    MOCLDY    50  37  61 W17G24    29.76R
N LITTLE ROCK    N/A     47  39  75 NW9G17    29.76R
JACKSONVILLE   FAIR      48  36  64 W16G25    29.74R
SEARCY         MOCLDY    47  35  63 W9G17     29.73R
HOT SPRINGS    CLEAR     47  35  63 NW14G22   29.78R
RUSSELLVILLE   CLEAR     45  37  73 VRB7      29.75R
CLINTON        FAIR      45  34  65 SW5       29.72R
$$

ARZ036-241200-
EAST ARKANSAS

CITY           SKY/WX    TMP DP  RH WIND       PRES   REMARKS
WEST MEMPHIS   LGT RAIN  50  48  93 W9G29     29.63R
$$

ARZ050-053-066-070-073-241200-
SOUTHWEST ARKANSAS

CITY           SKY/WX    TMP DP  RH WIND       PRES   REMARKS
ARKADELPHIA    FAIR      48  39  71 NW6       29.81R
CAMDEN         PTCLDY    48  39  71 E7        29.80R
TEXARKANA      CLEAR     47  36  65 NW9       29.84R
EL DORADO      PTCLDY    49  40  71 W6        29.82R
DE QUEEN       CLEAR     41  35  79 W6        29.83R
$$

ARZ056-057-069-241200-
SOUTHEAST ARKANSAS

CITY           SKY/WX    TMP DP  RH WIND       PRES   REMARKS
PINE BLUFF     CLEAR     49  40  71 W12       29.76R
STUTTGART      CLEAR     48  39  71 W24       29.73R
MONTICELLO     MOCLDY    52  41  66 W10G21    29.76R

$$




USA.gov is the U.S. government's official web portal to all federal, state and local government web resources and services.